CCA9214 ZBTJ-ZUTF

Flight info

Callsign CCA9214
Flight time N/A
Altitude 38100
Route PEGSO1W PEGSO B215 GODON W43 SAVPA W276 ANRUG W279 ONEBA G212 BUPMI BUPMI7T
Aircraft A21N/M-SDE2E3FGHIRWXY/LB1

Departure

Time 2026-04-30 14:34
Airport Tianjin Binhai International Airport (ZBTJ)

Arrival

Time N/A
Airport Chengdu Tianfu International Airport (ZUTF)
Time Latitude Longitude Altitude Speed Heading
2026-04-30 13:54 39.13056 117.33712 6 ft 0 kts 245°
2026-04-30 14:06 39.13054 117.33704 8 ft 0 kts 245°
2026-04-30 14:06 39.13055 117.33706 10 ft 26 kts 245°
2026-04-30 14:13 39.13056 117.33712 8 ft 0 kts 245°
2026-04-30 14:30 39.13072 117.33667 6 ft 13 kts 337°
2026-04-30 14:31 39.13361 117.33766 6 ft 24 kts 316°
2026-04-30 14:31 39.13672 117.33597 7 ft 26 kts 337°
2026-04-30 14:31 39.13838 117.33499 6 ft 27 kts 335°
2026-04-30 14:32 39.14011 117.33470 6 ft 6 kts 62°
2026-04-30 14:32 39.14024 117.33524 6 ft 7 kts 76°
2026-04-30 14:32 39.14029 117.33585 6 ft 7 kts 91°
2026-04-30 14:33 39.14012 117.33647 6 ft 8 kts 126°
2026-04-30 14:33 39.13850 117.33755 8 ft 45 kts 154°
2026-04-30 14:33 39.13301 117.34080 5 ft 124 kts 155°
2026-04-30 14:34 39.12350 117.34659 89 ft 170 kts 155°
2026-04-30 14:34 39.11174 117.35340 302 ft 197 kts 156°
2026-04-30 14:34 39.09950 117.36099 1089 ft 193 kts 159°
2026-04-30 14:34 39.08772 117.36843 1888 ft 192 kts 160°
2026-04-30 14:35 39.06113 117.38487 2613 ft 235 kts 159°
2026-04-30 14:35 39.04578 117.39433 3326 ft 248 kts 157°
2026-04-30 14:35 39.03013 117.40402 4400 ft 251 kts 155°
2026-04-30 14:36 39.01423 117.41385 5399 ft 256 kts 154°
2026-04-30 14:36 38.99800 117.42392 6380 ft 261 kts 153°
2026-04-30 14:36 38.98308 117.43741 7274 ft 266 kts 130°
2026-04-30 14:36 38.97332 117.45751 8200 ft 267 kts 106°
2026-04-30 14:37 38.97045 117.48080 9189 ft 264 kts 82°
2026-04-30 14:37 38.97308 117.50401 10179 ft 263 kts 75°
2026-04-30 14:37 38.97609 117.52736 11102 ft 267 kts 75°
2026-04-30 14:37 38.97909 117.55114 12018 ft 271 kts 75°
2026-04-30 14:38 38.98208 117.57527 12931 ft 276 kts 76°
2026-04-30 14:38 38.98509 117.59984 13844 ft 281 kts 76°
2026-04-30 14:38 38.98814 117.62496 14473 ft 287 kts 76°
2026-04-30 14:38 38.99117 117.65044 14668 ft 290 kts 78°
2026-04-30 14:39 38.98949 117.67640 14721 ft 299 kts 105°
2026-04-30 14:39 38.97803 117.69890 14727 ft 308 kts 137°
2026-04-30 14:39 38.95914 117.71159 14724 ft 311 kts 167°
2026-04-30 14:40 38.91575 117.71807 14727 ft 315 kts 185°
2026-04-30 14:40 38.89487 117.71114 14733 ft 310 kts 210°
2026-04-30 14:40 38.87788 117.69466 14740 ft 314 kts 233°
2026-04-30 14:40 38.86673 117.66991 14743 ft 338 kts 257°
2026-04-30 14:41 38.86211 117.63912 14739 ft 355 kts 266°
2026-04-30 14:41 38.85921 117.60794 14734 ft 356 kts 273°
2026-04-30 14:41 38.86150 117.57618 14723 ft 351 kts 286°
2026-04-30 14:41 38.86884 117.54698 14726 ft 348 kts 294°
2026-04-30 14:42 38.87743 117.51752 14730 ft 348 kts 294°
2026-04-30 14:42 38.88578 117.48833 14726 ft 348 kts 294°
2026-04-30 14:42 38.89394 117.45945 14716 ft 349 kts 293°
2026-04-30 14:42 38.90220 117.43010 14713 ft 350 kts 293°
2026-04-30 14:43 38.91036 117.40063 14724 ft 351 kts 290°
2026-04-30 14:43 38.91492 117.36968 14725 ft 356 kts 277°
2026-04-30 14:43 38.91375 117.33779 14722 ft 361 kts 264°
2026-04-30 14:43 38.90667 117.30669 14721 ft 367 kts 250°
2026-04-30 14:44 38.89491 117.27697 14724 ft 369 kts 245°
2026-04-30 14:44 38.88307 117.24825 14726 ft 369 kts 245°
2026-04-30 14:44 38.87091 117.21879 14718 ft 369 kts 246°
2026-04-30 14:44 38.85911 117.19007 14721 ft 369 kts 246°
2026-04-30 14:45 38.84720 117.16097 14710 ft 368 kts 245°
2026-04-30 14:45 38.83532 117.13198 14726 ft 367 kts 245°
2026-04-30 14:45 38.82342 117.10295 14723 ft 367 kts 245°
2026-04-30 14:45 38.81157 117.07403 14723 ft 367 kts 245°
2026-04-30 14:46 38.79964 117.04507 14725 ft 367 kts 245°
2026-04-30 14:46 38.78773 117.01620 14728 ft 367 kts 245°
2026-04-30 14:46 38.77575 116.98724 14722 ft 367 kts 245°
2026-04-30 14:46 38.76782 116.96809 14726 ft 367 kts 245°
2026-04-30 14:47 38.75186 116.92951 14721 ft 367 kts 245°
2026-04-30 14:47 38.73983 116.90068 14727 ft 367 kts 245°
2026-04-30 14:47 38.72769 116.87188 14723 ft 367 kts 245°
2026-04-30 14:47 38.71549 116.84321 14724 ft 366 kts 244°
2026-04-30 14:48 38.70329 116.81462 14726 ft 366 kts 244°
2026-04-30 14:48 38.69109 116.78599 14724 ft 366 kts 244°
2026-04-30 14:48 38.67890 116.75738 14735 ft 366 kts 244°
2026-04-30 14:48 38.66672 116.72876 14730 ft 366 kts 244°
2026-04-30 14:49 38.65463 116.70015 14716 ft 365 kts 246°
2026-04-30 14:49 38.64555 116.67049 14731 ft 361 kts 258°
2026-04-30 14:49 38.64119 116.63871 14716 ft 357 kts 269°
2026-04-30 14:49 38.64137 116.60713 14717 ft 355 kts 276°
2026-04-30 14:50 38.64335 116.54451 14708 ft 354 kts 275°
2026-04-30 14:50 38.64417 116.51300 14727 ft 354 kts 275°
2026-04-30 14:51 38.64587 116.45014 14721 ft 354 kts 275°
2026-04-30 14:51 38.64670 116.41871 14721 ft 354 kts 275°
2026-04-30 14:51 38.64834 116.35584 14716 ft 353 kts 275°
2026-04-30 14:52 38.64913 116.32442 14718 ft 354 kts 275°
2026-04-30 14:52 38.65075 116.26154 14720 ft 353 kts 275°
2026-04-30 14:52 38.65156 116.23010 14715 ft 352 kts 275°
2026-04-30 14:53 38.65310 116.16750 14718 ft 352 kts 274°
2026-04-30 14:53 38.65387 116.13621 14718 ft 352 kts 274°
2026-04-30 14:54 38.66101 116.08552 14718 ft 348 kts 292°
2026-04-30 14:54 38.68525 116.03131 16276 ft 352 kts 304°
2026-04-30 14:55 38.71164 115.97795 18028 ft 358 kts 303°
2026-04-30 14:55 38.72497 115.95086 18769 ft 361 kts 303°
2026-04-30 14:55 38.75644 115.88718 20443 ft 367 kts 303°
2026-04-30 14:56 38.77929 115.84108 21620 ft 371 kts 303°
2026-04-30 14:56 38.80716 115.78487 23044 ft 376 kts 302°
2026-04-30 14:57 38.82121 115.75647 23678 ft 379 kts 302°
2026-04-30 14:57 38.84942 115.69931 24902 ft 380 kts 303°
2026-04-30 14:58 38.87779 115.64181 26121 ft 382 kts 303°
2026-04-30 14:58 38.89196 115.61296 26701 ft 383 kts 303°
2026-04-30 14:58 38.91912 115.55391 27813 ft 387 kts 295°
2026-04-30 14:59 38.92871 115.48530 28870 ft 402 kts 272°
2026-04-30 15:00 38.90122 115.38022 30217 ft 426 kts 253°
2026-04-30 15:00 38.87661 115.31073 31156 ft 426 kts 253°
2026-04-30 15:01 38.85249 115.24267 32538 ft 416 kts 255°
2026-04-30 15:01 38.84046 115.20869 33295 ft 411 kts 256°
2026-04-30 15:01 38.81733 115.14336 34644 ft 400 kts 257°
2026-04-30 15:02 38.80585 115.11092 35222 ft 397 kts 257°
2026-04-30 15:02 38.79451 115.07885 35757 ft 394 kts 257°
2026-04-30 15:03 38.76090 114.98367 37316 ft 386 kts 258°
2026-04-30 15:03 38.73881 114.92140 38004 ft 382 kts 259°
2026-04-30 15:04 38.68416 114.76796 38020 ft 378 kts 259°
2026-04-30 15:06 38.62936 114.61518 38013 ft 378 kts 259°
2026-04-30 15:07 38.58523 114.49326 38025 ft 379 kts 259°
2026-04-30 15:08 38.54097 114.37102 38011 ft 379 kts 258°
2026-04-30 15:09 38.48551 114.21887 38049 ft 377 kts 258°
2026-04-30 15:10 38.44131 114.09803 38062 ft 377 kts 258°
2026-04-30 15:11 38.37490 113.91690 38036 ft 376 kts 258°
2026-04-30 15:13 38.31905 113.76589 38060 ft 378 kts 257°
2026-04-30 15:14 38.23948 113.55580 38056 ft 376 kts 257°
2026-04-30 15:17 38.13721 113.28604 38091 ft 375 kts 257°
2026-04-30 15:19 38.04793 113.04679 38092 ft 375 kts 256°